This is the latest recevied weather packets stored in our database for station/object AE0NK. If no packets are shown the sender has not sent any weather packets the latest 10 day(s).
| Time | Temp. | Humidity | Pressure | Rain* | Wind** | Luminosity | Snow |
|---|---|---|---|---|---|---|---|
| 1778116705 | 10° C | 42% | 1015.5 hPa | 0 mm | - | 0 W/m² | - |
| 1778116402 | 10° C | 41% | 1015.6 hPa | 0 mm | - | 0 W/m² | - |
| 1778116102 | 10° C | 40% | 1015.6 hPa | 0 mm | - | 0 W/m² | - |
| 1778115801 | 10.56° C | 40% | 1015.7 hPa | 0 mm | - | 5 W/m² | - |
| 1778115192 | 10.56° C | 37% | 1015.5 hPa | 0 mm | - | 11 W/m² | - |
| 1778114910 | 10.56° C | 37% | 1015.5 hPa | 0 mm | - | 12 W/m² | - |
| 1778114608 | 11.11° C | 37% | 1015.5 hPa | 0 mm | - | 16 W/m² | - |
| 1778114307 | 11.11° C | 37% | 1015.6 hPa | 0 mm | - | 21 W/m² | - |
| 1778114007 | 11.11° C | 36% | 1015.5 hPa | 0 mm | - | 26 W/m² | - |
| 1778113706 | 11.11° C | 37% | 1015.6 hPa | 0 mm | - | 51 W/m² | - |
| 1778113405 | 11.11° C | 36% | 1015.6 hPa | 0 mm | - | 65 W/m² | - |
| 1778113104 | 11.67° C | 38% | 1015.6 hPa | 0 mm | - | 81 W/m² | - |
| 1778112803 | 11.67° C | 35% | 1015.7 hPa | 0 mm | - | 97 W/m² | - |
| 1778112501 | 11.67° C | 37% | 1015.5 hPa | 0 mm | - | 107 W/m² | - |
| 1778112200 | 11.67° C | 34% | 1015.6 hPa | 0 mm | - | 123 W/m² | - |
| 1778111897 | 11.67° C | 35% | 1015.7 hPa | 0 mm | - | 142 W/m² | - |
| 1778111596 | 12.22° C | 35% | 1015.4 hPa | 0 mm | - | 158 W/m² | - |
| 1778111293 | 12.22° C | 34% | 1015.6 hPa | 0 mm | - | 171 W/m² | - |
| 1778110992 | 12.22° C | 36% | 1015.6 hPa | 0 mm | - | 186 W/m² | - |
| 1778110711 | 12.22° C | 34% | 1015.7 hPa | 0 mm | - | 134 W/m² | - |
| 1778110408 | 12.22° C | 37% | 1015.7 hPa | 0 mm | - | 76 W/m² | - |
| 1778110105 | 12.22° C | 34% | 1015.7 hPa | 0 mm | - | 69 W/m² | - |
| 1778109804 | 12.22° C | 35% | 1015.7 hPa | 0 mm | - | 76 W/m² | - |
| 1778109503 | 12.22° C | 36% | 1015.8 hPa | 0 mm | - | 77 W/m² | - |
| 1778109203 | 12.22° C | 38% | 1015.7 hPa | 0 mm | - | 188 W/m² | - |
* Rain latest hour (hover to see other rain measurements)
** Current wind speed in m/s (hover to see current wind gust speed)